Gainesville, GA

3:02 PM EDT on March 29, 2017 (GMT -0400)
Gilmer Memorial

Weather History for KGVL - October, 2013

Change the Weather History Date:

Thursday, October 10, 2013

  Actual Average Record
Temperature  
Mean Temperature 65 °F 63 °F  
Max Temperature 78 °F 73 °F 86 °F (1939)
Min Temperature 52 °F 54 °F 35 °F (1940)
Degree Days  
Heating Degree Days 0 3  
Month to date heating degree days 2 25  
Since 1 July heating degree days 8 38  
Cooling Degree Days 0 2  
Month to date cooling degree days 43 23  
Year to date cooling degree days 1413 1564  
Growing Degree Days 15 (Base 50)    
Moisture  
Dew Point 52 °F    
Average Humidity 65    
Maximum Humidity 89    
Minimum Humidity 40    
Precipitation  
Precipitation 0.00 in 0.14 in 2.07 in (1934)
Month to date precipitation 1.83 1.62  
Year to date precipitation 42.55  
Snow  
Snow 0.00 in - - ()
Month to date snowfall 0.0  
Since 1 July snowfall 0.0  
Since 1 September snowfall 0.0  
Snow Depth 0.00 in    
Sea Level Pressure  
Sea Level Pressure 30.09 in    
Wind  
Wind Speed 5 mph (NW)    
Max Wind Speed 18 mph    
Max Gust Speed 24 mph    
Visibility 10 miles    
Events      
T = Trace of Precipitation, MM = Missing Value Source: NWS Daily Summary

Daily Weather History Graph

Daily Weather History Graph

Search for Another Location

Airport or City:

Trip Planner

Search our weather history database for the weather conditions in past years. The results will help you decide how hot, cold, wet, or windy it might be!

Date:

Astronomy

Oct. 10, 2013 Rise Set
Actual Time 7:36 AM EDT 7:07 PM EDT
Civil Twilight 7:11 AM EDT 7:32 PM EDT
Nautical Twilight 6:42 AM EDT 8:01 PM EDT
Astronomical Twilight 6:13 AM EDT 8:30 PM EDT
Moon 1:17 PM EDT (10/10) 11:53 PM EDT (10/10)
Length of Visible Light 12h 20m
Length of Day
11h 30m
Waxing Crescent, 35% of the Moon is Illuminated
Oct 10
Waxing Crescent
Oct 11
First Quarter
Oct 18
Full
Oct 26
Last Quarter
Nov 3
New

Hourly Weather History & Observations

Time (EDT) Temp. Dew Point Humidity Pressure Visibility Wind Dir Wind Speed Gust Speed Precip Events Conditions
12:53 AM 57.9 °F 53.1 °F 84% 30.13 in 10.0 mi Calm Calm - N/A   Clear
1:53 AM 57.0 °F 52.0 °F 83% 30.13 in 10.0 mi Calm Calm - N/A   Clear
2:53 AM 57.9 °F 52.0 °F 81% 30.13 in 10.0 mi NNE 3.5 mph - N/A   Overcast
3:53 AM 55.9 °F 50.0 °F 80% 30.12 in 10.0 mi Calm Calm - N/A   Clear
4:53 AM 55.0 °F 50.0 °F 83% 30.12 in 10.0 mi Calm Calm - N/A   Clear
5:53 AM 53.1 °F 50.0 °F 89% 30.13 in 10.0 mi Calm Calm - N/A   Clear
6:53 AM 53.1 °F 50.0 °F 89% 30.14 in 10.0 mi Calm Calm - N/A   Clear
7:53 AM 53.1 °F 50.0 °F 89% 30.14 in 10.0 mi Calm Calm - N/A   Clear
8:53 AM 57.9 °F 53.1 °F 84% 30.15 in 10.0 mi Calm Calm - N/A   Clear
9:53 AM 62.1 °F 51.1 °F 67% 30.14 in 10.0 mi WSW 5.8 mph - N/A   Clear
10:53 AM 66.9 °F 52.0 °F 59% 30.13 in 10.0 mi West 6.9 mph - N/A   Clear
11:53 AM 71.1 °F 53.1 °F 53% 30.12 in 10.0 mi NW 8.1 mph - N/A   Clear
12:53 PM 75.9 °F 53.1 °F 45% 30.09 in 10.0 mi North 15.0 mph 23.0 mph N/A   Clear
1:53 PM 75.9 °F 52.0 °F 43% 30.07 in 10.0 mi NW 12.7 mph 20.7 mph N/A   Clear
2:53 PM 77.0 °F 52.0 °F 42% 30.04 in 10.0 mi WNW 10.4 mph 17.3 mph N/A   Clear
3:53 PM 77.0 °F 52.0 °F 42% 30.04 in 10.0 mi WNW 11.5 mph - N/A   Clear
4:53 PM 77.0 °F 51.1 °F 40% 30.03 in 10.0 mi NW 11.5 mph 17.3 mph N/A   Clear
5:53 PM 75.0 °F 51.1 °F 43% 30.02 in 10.0 mi NW 10.4 mph - N/A   Clear
6:53 PM 71.1 °F 52.0 °F 51% 30.03 in 10.0 mi NW 5.8 mph - N/A   Clear
7:53 PM 66.9 °F 53.1 °F 61% 30.04 in 10.0 mi NW 6.9 mph - N/A   Clear
8:53 PM 66.0 °F 53.1 °F 63% 30.03 in 10.0 mi NNW 5.8 mph - N/A   Clear
9:53 PM 64.0 °F 52.0 °F 65% 30.03 in 10.0 mi NW 4.6 mph - N/A   Clear
10:53 PM 62.1 °F 52.0 °F 70% 30.03 in 10.0 mi NW 3.5 mph - N/A   Clear
11:53 PM 61.0 °F 52.0 °F 72% 30.02 in 10.0 mi NW 3.5 mph - N/A   Clear